Regional Weather Roundup
Issued by NWS

Home | Current Version | Previous Version | Graphics & Text | Print | Product List | Glossary On
Versions: 1 2 3 4 5 6 7 8 9 10 11 12 13 14 15 16 17 18 19 20 21 22 23 24 25 26 27 28 29 30 31 32 33 34 35 36 37 38 39 40 41 42 43 44 45 46 47 48 49 50
000
ASUS45 KCYS 081810
RWRWY

WYOMING REGIONAL WEATHER ROUNDUP
NATIONAL WEATHER SERVICE CHEYENNE WY
1100 AM MST MON FEB 08 2016

NOTE:  "FAIR" INDICATES FEW OR NO CLOUDS BELOW 12,000 FEET
WITH NO SIGNIFICANT WEATHER AND/OR OBSTRUCTIONS TO VISIBILITY.

WYZ001-081900-
YELLOWSTONE NATIONAL PARK

CITY           SKY/WX    TMP DP  RH WIND       PRES   REMARKS
LK YELLOWSTONE   N/A     24  14  65 CALM      30.63F
6HR MIN TEMP:   6; 6HR MAX TEMP:  24;

W YELLOWSTONE  NOT AVBL

$$
WYZ002>013-054>058-071-098>099-081900-
NORTHERN WYOMING

CITY           SKY/WX    TMP DP  RH WIND       PRES   REMARKS
JACKSON        SUNNY     19  14  79 CALM      30.66R
CODY           FAIR      43  21  42 E5        30.44F
GREYBULL       FAIR      33  19  56 CALM      30.50S
6HR MIN TEMP:  18; 6HR MAX TEMP:  33;

WORLAND        FAIR      32  20  61 CALM      30.49S
6HR MIN TEMP:  15; 6HR MAX TEMP:  32;

SHERIDAN       MOSUNNY   46  23  39 N12       30.38F
6HR MIN TEMP:  25; 6HR MAX TEMP:  45;

BUFFALO        FAIR      40  24  53 N15G24    30.38F WCI  32
6HR MIN TEMP:  24; 6HR MAX TEMP:  40;

GILLETTE       FAIR      35  16  45 W14       30.37F WCI  26
6HR MIN TEMP:  20; 6HR MAX TEMP:  35;

HULETT         CLOUDY    32  10  40 W5        30.36F WCI  27
NEWCASTLE      FAIR      36   5  27 NW26G36   30.34S WCI  23

$$
WYZ014>020-022>026-101>103-081900-
CENTRAL WYOMING

CITY           SKY/WX    TMP DP  RH WIND       PRES   REMARKS
BIG PINEY      FAIR      33  23  66 NE12      30.57R WCI  24
6HR MIN TEMP:  19; 6HR MAX TEMP:  36;

PINEDALE       FAIR      34  25  69 W28G36    30.53S WCI  20
DUBOIS         FAIR      39  16  38 W30G46    30.47R WCI  27
LANDER         FAIR      28  15  58 CALM      30.47S
6HR MIN TEMP:  14; 6HR MAX TEMP:  29;

RIVERTON       FAIR      25  15  66 NE5       30.49S WCI  19
6HR MIN TEMP:  12; 6HR MAX TEMP:  27;

CASPER         FAIR      32  19  58 SW15      30.45S WCI  22
6HR MIN TEMP:  23; 6HR MAX TEMP:  32;

DOUGLAS        CLOUDY    35  20  54 NW16G25     N/A  WCI  25
6HR MIN TEMP:  16; 6HR MAX TEMP:  35;


$$
WYZ021-027>030-104>119-081900-
SOUTHERN WYOMING

CITY           SKY/WX    TMP DP  RH WIND       PRES   REMARKS
EVANSTON       FAIR      24  14  65 N3        30.65R
6HR MIN TEMP:  17; 6HR MAX TEMP:  28;

KEMMERER       FAIR      34  19  55 S3        30.62F
FORT BRIDGER   CLEAR     36  25  64 W16       30.64R WCI  26
ROCK SPRINGS   FAIR      32  22  66 SW18      30.56S WCI  20
6HR MIN TEMP:  24; 6HR MAX TEMP:  32;

DIXON          FAIR      25  16  69 CALM      30.62S
RAWLINS        FAIR      30  19  63 W18G29    30.51S WCI  18
6HR MIN TEMP:  22; 6HR MAX TEMP:  30;

SARATOGA       FAIR      32  23  69 W13       30.53S WCI  22
LARAMIE          N/A     38  23  55 NW13      30.42S WCI  30
6HR MIN TEMP:  28; 6HR MAX TEMP:  38;

CHEYENNE       FAIR      39  22  50 NW28G43   30.36F WCI  28
6HR MIN TEMP:  33; 6HR MAX TEMP:  39;

TORRINGTON     CLOUDY    37  19  48 NW16      30.39F WCI  28
6HR MIN TEMP:  22; 6HR MAX TEMP:  37;

PINE BLUFFS    FAIR      37  25  60 NW24G33   30.38F WCI  26

$$



USA.gov is the U.S. government's official web portal to all federal, state and local government web resources and services.